Skip Page Navigation
NASA JPL Caltech
NASA Logo - Jet Propulsion Laboratory + View the NASA Portal
+ Center for Near-Earth Object Studies
JPL Home Earth Solar System Stars & Galaxies Technology
JPL Solar System Dynamics
BODIES ORBITS EPHEMERIDES TOOLS PHYSICAL DATA DISCOVERY FAQ SITE MAP
JPL Small-Body Database Browser
Search: [ help ]  
213371 (2001 TY210)
Classification: Main-belt Asteroid          SPK-ID: 2213371
Ephemeris | Orbit Diagram | Orbital Elements | Mission Design | Physical Parameters | Discovery Circumstances ]

[ show orbit diagram ]
Orbital Elements at Epoch 2459200.5 (2020-Dec-17.0) TDB
Reference: JPL 19 (heliocentric ecliptic J2000)
 Element Value Uncertainty (1-sigma)   Units 
e .1548540688447073 5.7106e-08  
a 2.729560265545795 2.1069e-08 au
q 2.306876752269189 1.5281e-07 au
i 8.090263357982757 5.1466e-06 deg
node 292.5224206654736 4.644e-05 deg
peri 2.41822532395494 5.156e-05 deg
M 146.6165943771145 2.3099e-05 deg
tp 2458529.661336913693
(2019-Feb-15.16133691)
0.00010569 TDB
period 1647.166337051182
4.51
1.9071e-05
5.221e-08
d
yr
n .2185571620195234 2.5305e-09 deg/d
Q 3.152243778822402 2.4332e-08 au
  Orbit Determination Parameters
   # obs. used (total)      464  
   data-arc span      7569 days (20.72 yr)  
   first obs. used      2000-04-28  
   last obs. used      2021-01-17  
   planetary ephem.      DE441  
   SB-pert. ephem.      SB441-N16  
   condition code      0  
   norm. resid. RMS      .45436  
   source      ORB  
   producer      Otto Matic  
   solution date      2021-Apr-13 23:42:26  

Additional Information
 Earth MOID = 1.2889 au 
 Jupiter MOID = 2.04854 au 
 T_jup = 3.323 
[ show covariance matrix ]

Ephemeris | Orbit Diagram | Orbital Elements | Mission Design | Physical Parameters | Discovery Circumstances ]

Physical Parameter Table
Parameter Symbol Value Units Sigma Reference Notes
absolute magnitude H 15.65   n/a MPCxxxxx  

213371 (2001 TY210)          Discovered 2001-Oct-13 by NEAT at Palomar
Reference: 20090509/Numbers.arcLast Updated: 2009-05-11
Ephemeris | Orbit Diagram | Orbital Elements | Mission Design | Physical Parameters | Discovery Circumstances ]
ABOUT SSD CREDITS/AWARDS PRIVACY/COPYRIGHT GLOSSARY LINKS
FirstGov 2021-May-11 15:56 UT
(server date/time)  
NASA Home Page
Site Manager:   Ryan S. Park
Webmaster  Alan B. Chamberlin